Vorticity
nan nan nan nan nan nan nan nan nan nan nan nan nan nan nan nan nan nan nan nan nan nan nan nan nan nan nan nan nan nan nan nan nan nan nan nan nan nan nan nan nan nan nan
nan 8 8 8 9 10 9 9 9 9 9 9 10 10 9 9 9 8 9 9 10 9 8 9 9 9 9 10 11 9 9 8 9 12 10 11 9 9 9 8 8 9 nan
nan 7 8 9 9 9 9 9 10 9 9 10 10 10 10 10 9 9 9 9 10 10 10 9 9 9 9 9 9 9 9 9 9 11 9 9 10 9 8 7 9 9 nan
nan 8 9 9 9 9 10 10 9 9 9 10 10 10 10 10 11 10 10 10 10 10 10 10 10 8 6 6 9 9 9 8 10 10 10 10 10 9 9 8 7 8 nan
nan 9 9 10 10 9 9 9 9 10 10 10 10 10 10 12 7 6 8 11 11 10 10 9 10 8 7 3 4 6 7 8 8 8 12 11 8 10 10 8 8 8 nan
nan 9 10 10 9 9 9 9 10 10 10 10 10 10 11 9 2 5 9 14 12 10 10 11 10 11 11 11 6 7 5 3 3 6 7 7 9 10 11 10 8 9 nan
nan 9 9 9 9 9 10 10 10 11 10 11 11 11 11 7 7 11 11 13 12 9 9 9 10 13 13 14 14 14 12 11 8 7 7 6 8 12 9 8 7 11 nan
nan 9 9 9 9 10 10 10 11 11 10 10 10 11 11 8 8 11 14 15 11 10 10 10 10 10 10 6 11 13 13 15 14 9 8 7 7 9 11 10 8 7 nan
nan 9 9 9 10 10 10 10 12 10 10 11 10 10 9 7 9 11 15 16 12 13 12 12 8 10 9 5 7 10 9 10 13 12 9 8 10 11 8 8 11 6 nan
nan 9 10 10 10 10 11 12 11 10 10 10 10 11 10 9 11 11 15 15 12 12 14 14 13 11 10 8 5 11 11 11 10 12 12 13 14 20 14 3 6 4 nan
nan 10 10 10 12 12 11 11 10 11 11 11 12 12 15 12 9 10 13 9 8 10 12 14 18 11 10 13 9 5 6 8 11 10 11 12 13 15 15 13 12 9 nan
nan 10 10 11 12 10 11 11 11 13 12 11 13 14 13 12 11 10 11 8 7 9 11 9 12 17 10 9 10 11 9 5 8 11 10 11 12 14 15 14 12 11 nan
nan 10 11 11 11 11 12 13 14 12 12 12 12 11 11 13 13 11 15 18 15 12 9 11 13 16 14 16 14 13 13 13 11 10 10 11 13 15 12 8 10 9 nan
nan 11 12 11 11 15 14 12 12 12 10 10 11 11 10 11 11 13 14 16 17 14 10 15 19 18 18 18 17 15 14 12 12 12 11 11 13 12 9 9 9 5 nan
nan 12 12 12 13 12 13 11 9 7 5 6 6 8 11 8 3 1 6 12 19 18 17 14 15 15 15 13 13 14 12 11 11 11 11 10 10 10 11 13 10 9 nan
nan 12 12 11 13 12 11 9 7 7 7 10 12 13 8 2 5 11 15 12 6 17 23 16 14 13 12 12 13 13 14 10 11 11 11 11 11 10 10 10 12 14 nan
nan 8 12 11 12 11 12 10 11 12 14 17 14 12 10 14 15 18 21 17 18 19 15 12 13 14 13 15 15 15 14 16 13 11 11 11 10 13 11 8 11 12 nan
nan 14 17 12 12 11 11 12 12 10 13 10 11 14 15 14 16 19 19 22 22 16 13 13 13 12 13 13 13 16 18 16 12 12 12 12 11 11 10 11 12 13 nan
nan 14 11 13 9 11 14 12 11 12 12 11 10 11 12 15 19 17 21 20 13 13 13 14 14 13 12 12 13 15 15 14 13 12 12 12 12 11 10 12 15 15 nan
nan 6 16 17 12 13 11 12 12 11 13 13 12 13 14 17 16 14 14 13 14 13 13 13 13 14 14 13 13 13 13 13 12 12 12 12 12 13 12 12 12 9 nan
nan 6 12 18 11 12 12 11 12 12 11 12 12 5 14 23 13 12 13 13 13 13 13 13 13 13 13 14 14 13 12 12 12 12 12 12 13 12 11 11 11 12 nan
nan 11 13 12 11 10 12 12 12 11 12 13 13 6 15 20 13 12 12 13 13 13 13 13 12 13 14 15 14 13 13 12 12 12 12 11 11 11 12 12 12 11 nan
nan 10 12 12 8 12 15 12 12 12 12 14 15 13 13 12 12 12 12 13 13 13 13 13 13 13 13 13 14 15 13 12 12 12 12 11 12 13 12 12 11 12 nan
nan 11 12 12 10 12 11 12 9 10 17 17 13 13 12 12 12 12 13 13 13 13 14 13 13 14 15 15 15 16 16 18 15 16 12 12 14 13 11 11 13 12 nan
nan 11 12 11 11 11 11 12 13 14 15 14 14 12 12 12 12 12 12 13 13 12 13 14 14 13 15 16 16 19 20 16 14 16 12 14 13 10 10 12 13 10 nan
nan nan nan nan nan nan nan nan nan nan nan nan nan nan nan nan nan nan nan nan nan nan nan nan nan nan nan nan nan nan nan nan nan nan nan nan nan nan nan nan nan nan nan
CAPE
0 0 0 0 0 0 0 0 0 0 0 0 0 2 1 0 0 1 3 2 2 0 0 0 0 0 1 7 11 12 5 6 12 0 11 0 1 0 0 0 0 0 0
0 0 0 0 0 0 0 0 0 0 0 0 0 1 2 2 4 1 0 7 3 0 0 0 0 0 0 0 2 0 3 9 7 13 23 0 0 0 0 0 0 0 0
0 0 0 0 0 0 0 0 0 0 0 0 0 0 3 6 5 0 1 3 11 10 1 0 0 0 0 0 4 3 0 5 10 13 11 0 0 0 0 0 0 0 0
0 0 0 0 0 0 0 0 0 0 0 0 0 0 1 2 2 2 2 5 7 7 3 0 0 0 0 0 0 5 7 5 4 6 0 0 0 0 0 0 0 0 0
0 0 0 0 0 0 0 0 0 0 0 0 0 0 0 2 6 5 6 6 5 7 9 11 14 12 4 8 7 7 9 11 21 5 7 0 0 0 0 0 0 0 0
0 0 0 0 0 0 0 0 0 0 0 0 0 1 0 3 9 23 20 15 15 15 2 0 9 16 15 7 15 12 16 7 11 7 4 3 0 0 0 0 0 0 0
0 0 0 0 0 0 0 0 0 0 0 0 0 0 1 1 13 25 32 17 29 21 17 5 2 13 18 9 12 14 11 22 26 6 5 5 3 0 0 0 0 0 0
0 0 0 0 0 0 0 0 0 0 0 0 0 1 2 6 15 15 28 12 24 2 1 0 1 7 20 17 9 8 8 7 10 15 8 1 2 6 0 0 0 0 0
0 0 0 0 0 0 0 0 0 0 0 1 2 3 4 5 13 14 14 14 22 13 0 4 0 0 11 36 17 10 5 2 10 28 22 13 13 19 0 0 0 0 0
0 0 0 0 0 0 0 0 0 0 3 6 6 2 5 2 5 14 15 10 11 13 9 9 9 13 31 35 25 12 7 5 6 2 2 1 0 0 1 0 0 0 0
0 0 0 0 0 0 0 0 0 0 4 0 1 3 1 1 0 14 13 7 20 22 21 15 12 21 30 39 56 22 10 1 6 0 0 0 0 0 1 0 0 0 0
0 0 0 0 0 3 0 0 1 0 0 0 1 2 3 0 1 4 11 13 23 20 22 26 25 49 43 35 31 46 53 34 5 0 0 0 0 0 0 0 0 0 0
0 0 0 0 1 0 2 0 0 2 0 0 3 3 1 0 0 9 11 12 25 19 15 13 47 49 52 35 30 38 46 24 18 0 0 0 0 0 0 0 0 0 0
0 0 0 0 1 0 3 7 1 0 0 3 3 0 1 3 1 1 1 0 3 3 6 7 18 21 31 28 24 9 2 5 3 0 0 0 0 0 0 0 0 0 0
0 0 0 2 0 0 2 0 1 3 6 5 7 7 6 2 0 7 21 4 2 5 6 1 0 0 2 1 2 2 0 0 14 0 0 0 0 0 0 0 0 0 0
0 1 0 1 1 0 1 0 3 13 24 19 23 20 9 19 27 26 34 49 45 38 2 2 0 0 0 1 2 2 0 3 0 0 0 0 0 0 0 0 0 0 0
0 0 0 6 5 0 0 0 1 0 2 4 11 16 17 22 23 31 44 47 47 32 1 0 0 0 0 0 0 0 0 0 0 0 0 0 0 0 0 0 0 0 0
0 11 4 2 1 0 1 0 0 0 0 0 0 2 10 15 17 34 30 25 0 0 0 0 0 0 0 0 0 0 0 0 0 0 0 0 0 0 0 0 0 0 0
1 3 0 0 2 1 0 0 0 0 0 0 0 0 0 3 18 15 13 1 0 0 0 0 0 0 0 0 0 0 0 0 0 0 0 0 0 0 0 0 0 1 0
0 5 9 1 1 0 0 0 0 0 0 0 0 0 0 1 1 1 2 1 0 0 0 0 0 0 0 0 0 0 0 0 0 0 0 0 0 0 0 0 0 0 0
0 1 9 0 0 0 0 0 0 0 0 0 0 0 36 1 1 1 1 1 0 0 0 0 0 0 0 0 0 0 0 0 0 0 0 0 0 0 0 0 0 0 0
0 1 1 0 0 0 1 0 0 0 0 0 0 3 14 1 1 0 1 0 0 0 0 0 0 0 0 0 0 0 0 0 0 0 0 0 0 0 0 0 0 0 0
0 0 0 0 0 2 0 0 0 0 0 0 3 2 1 1 1 0 0 0 0 0 0 0 0 0 0 0 0 0 0 0 0 0 0 0 0 0 0 0 0 0 0
0 0 0 0 0 0 0 0 0 0 0 1 0 1 0 0 0 0 0 0 0 0 0 0 0 0 0 0 0 0 0 0 0 0 0 0 0 0 0 0 0 0 0
0 0 0 0 0 0 0 0 0 0 0 1 0 0 0 0 0 0 0 0 0 0 0 0 0 0 0 0 0 0 0 1 0 0 0 0 0 0 0 0 0 0 0
0 0 0 0 0 0 0 0 0 0 0 0 0 0 0 0 0 0 0 0 0 0 0 0 0 0 0 0 0 0 1 0 0 0 0 0 0 0 0 0 0 0 0